STARLINK-1023 (44728 NORAD) Tracking and Keplerian Element Data

This shows tracking and keplerian element data for the satellite.

Feedback or suggestion? Click here.




ElementValue
Catalog44728
NameSTARLINK-1023
Epoch Orbit1066
Epoch Day18.25002315
Epoch Year2020
RAAN194.2126
Inclination53.007
Eccentricity0.0006219
Argument of Perigee335.0441
Mean Anonmoly50.7392
Mean Motion15.73143078
Decay Rate0.00324072
L11 44728U 19074R 20018.25002315 .00324072 00000-0 22291-2 0 9991
L22 44728 53.0070 194.2126 0006219 335.0441 50.7392 15.73143078 10663

Live tracking and technical data element details for STARLINK-1023 (NORAD 44728). STARLINK-1023 can be tracked NOW for your location showing map with azimuth and elevation plus other details from your city location.

Track the satellite on the map from your city or location and see movement details for azimuth, elevation, latitude, longitude, range, height, and movement on the map or in text.







IsCatalogInMostPopularTable: catalog: 44728, numindb: 9
Update: records affected: 1



GetName: 44728 STARLINK-1023

Hit Count: updated at: Mon, 20 Jan 2020 03:30:47 GMT